TimeEDT,TemperatureF,Dew PointF,Humidity,Sea Level PressureIn,VisibilityMPH,Wind Direction,Wind SpeedMPH,Gust SpeedMPH,PrecipitationIn,Events,Conditions,WindDirDegrees,DateUTC
12:53 AM,63.0,60.1,90,30.05,10.0,Calm,Calm,-,N/A,,Clear,0,2012-08-07 04:53:00
1:53 AM,61.0,59.0,93,30.04,10.0,Calm,Calm,-,N/A,,Clear,0,2012-08-07 05:53:00
2:53 AM,61.0,59.0,93,30.03,10.0,Calm,Calm,-,N/A,,Clear,0,2012-08-07 06:53:00
3:53 AM,60.1,57.9,93,30.02,10.0,Calm,Calm,-,N/A,,Clear,0,2012-08-07 07:53:00
4:53 AM,57.9,55.9,93,30.01,7.0,Calm,Calm,-,N/A,,Clear,0,2012-08-07 08:53:00
5:53 AM,59.0,57.0,93,30.02,10.0,Calm,Calm,-,N/A,,Clear,0,2012-08-07 09:53:00
6:53 AM,57.9,55.9,93,30.03,8.0,Calm,Calm,-,N/A,,Clear,0,2012-08-07 10:53:00
7:07 AM,59.0,57.2,94,30.04,-9999.0,Calm,Calm,-,N/A,,Scattered Clouds,0,2012-08-07 11:07:00
7:14 AM,60.8,57.2,88,30.04,0.5,Calm,Calm,-,N/A,Fog,Fog,0,2012-08-07 11:14:00
7:38 AM,60.8,59.0,94,30.04,2.0,Calm,Calm,-,N/A,,Mostly Cloudy,0,2012-08-07 11:38:00
7:45 AM,60.8,59.0,94,30.04,6.0,Calm,Calm,-,N/A,,Mostly Cloudy,0,2012-08-07 11:45:00
7:53 AM,61.0,60.1,97,30.03,3.0,Calm,Calm,-,N/A,,Mostly Cloudy,0,2012-08-07 11:53:00
8:03 AM,62.6,60.8,94,30.05,8.0,Calm,Calm,-,N/A,,Partly Cloudy,0,2012-08-07 12:03:00
8:53 AM,66.9,62.1,84,30.04,10.0,Calm,Calm,-,N/A,,Clear,0,2012-08-07 12:53:00
9:53 AM,72.0,64.0,76,30.04,10.0,Calm,Calm,-,N/A,,Clear,0,2012-08-07 13:53:00
10:53 AM,78.1,64.9,64,30.03,10.0,Calm,Calm,-,N/A,,Clear,0,2012-08-07 14:53:00
11:53 AM,80.1,63.0,56,30.03,10.0,WNW,4.6,-,N/A,,Clear,300,2012-08-07 15:53:00
12:53 PM,81.0,60.1,49,30.02,10.0,Calm,Calm,-,N/A,,Clear,0,2012-08-07 16:53:00
1:53 PM,82.0,60.1,47,30.00,10.0,West,4.6,-,N/A,,Clear,270,2012-08-07 17:53:00
2:53 PM,84.0,57.0,40,29.98,10.0,WNW,6.9,-,N/A,,Clear,300,2012-08-07 18:53:00
3:53 PM,84.9,57.0,38,29.97,10.0,NW,6.9,-,N/A,,Clear,310,2012-08-07 19:53:00
4:53 PM,84.9,57.9,40,29.96,10.0,Variable,4.6,-,N/A,,Clear,0,2012-08-07 20:53:00
5:53 PM,84.0,55.9,38,29.96,10.0,West,3.5,-,N/A,,Clear,280,2012-08-07 21:53:00
6:53 PM,82.9,55.0,38,29.96,10.0,WSW,5.8,-,N/A,,Clear,250,2012-08-07 22:53:00
7:53 PM,81.0,57.0,44,29.96,10.0,Calm,Calm,-,N/A,,Clear,0,2012-08-07 23:53:00
8:53 PM,73.0,60.1,64,29.96,10.0,Calm,Calm,-,N/A,,Clear,0,2012-08-08 00:53:00
9:53 PM,68.0,60.1,76,29.99,10.0,Calm,Calm,-,N/A,,Clear,0,2012-08-08 01:53:00
10:53 PM,66.0,61.0,84,29.99,10.0,Calm,Calm,-,N/A,,Clear,0,2012-08-08 02:53:00
11:53 PM,64.9,60.1,84,29.99,10.0,Calm,Calm,-,N/A,,Clear,0,2012-08-08 03:53:00